OOCL Nagoya — VRFX8 — position and weather

sailwx.info

Track history (hours):
 
Tides and Currents Weather Stations Pressure Air Temp Water Temp Dewpoint Dewpoint Depression Visibility Wind Speed Wind Dir Waves Ship Positions

OOCL Nagoya

Last reported at 2014-Sep-20 03:29 UTC. Time now 2014-Sep-20 14:00 UTC.
Position N 22°18' E 114°06'.

Length 260 m; draft 10.4 m.

Type: Cargo ship. MMSI: 477627900.

Date/timePositionNaut miles runAvg speedWind from/ knotsBaromVisibWave heightAir tempDewpointWater temp
2014-Sep-20 03:29N 22°18' E 114°06'11 9.9
2014-Sep-20 02:24N 22°22' E 113°55'6 6.3
2014-Sep-20 01:30N 22°27' E 113°54'0 0.3
2014-Sep-20 00:30N 22°28' E 113°54'0 0.0
2014-Sep-19 23:33N 22°28' E 113°54'0 0.0
2014-Sep-19 22:33N 22°28' E 113°54'0 0.0
2014-Sep-19 21:27N 22°28' E 113°54'0 0.0
2014-Sep-19 20:33N 22°28' E 113°54'0 0.0
2014-Sep-19 19:30N 22°28' E 113°54'0 0.0
2014-Sep-19 18:30N 22°28' E 113°54'0 0.0
2014-Sep-19 17:30N 22°28' E 113°54'0 0.0
2014-Sep-19 16:30N 22°28' E 113°54'0 0.0
2014-Sep-19 15:30N 22°28' E 113°54'0 0.0
2014-Sep-19 14:24N 22°28' E 113°54'0 0.0
2014-Sep-19 13:30N 22°28' E 113°54'0 0.0
2014-Sep-19 12:30N 22°28' E 113°54'0 0.0
2014-Sep-19 11:33N 22°28' E 113°54'0 0.0
2014-Sep-19 10:33N 22°28' E 113°54'0 0.0
2014-Sep-19 09:24N 22°28' E 113°54'4 4.3
2014-Sep-19 08:34N 22°24' E 113°54'11 9.8
2014-Sep-19 07:26N 22°20' E 114°05'178 7.0
2014-Sep-18 06:00N 19°24' E 113°36'49 8.2 090 / 61008.010.8 2.025.022.0
2014-Sep-18 00:00N 18°36' E 113°24'7412.3 090 / 61008.010.8 2.025.022.0
2014-Sep-17 18:00N 17°24' E 113°06'   200 / 171007.010.8 2.529.028.0
Track history (hours):
 
Tides and Currents Weather Stations Pressure Air Temp Water Temp Dewpoint Dewpoint Depression Visibility Wind Speed Wind Dir Waves Ship Positions

OOCL Nagoya

Last reported at 2014-Sep-20 03:29 UTC. Time now 2014-Sep-20 14:00 UTC.
Position N 22°18' E 114°06'.

Length 260 m; draft 10.4 m.

Type: Cargo ship. MMSI: 477627900.

Date/timePositionNaut miles runAvg speedWind from/ knotsBaromVisibWave heightAir tempDewpointWater temp
2014-Sep-20 03:29N 22°18' E 114°06'11 9.9
2014-Sep-20 02:24N 22°22' E 113°55'6 6.3
2014-Sep-20 01:30N 22°27' E 113°54'0 0.3
2014-Sep-20 00:30N 22°28' E 113°54'0 0.0
2014-Sep-19 23:33N 22°28' E 113°54'0 0.0
2014-Sep-19 22:33N 22°28' E 113°54'0 0.0
2014-Sep-19 21:27N 22°28' E 113°54'0 0.0
2014-Sep-19 20:33N 22°28' E 113°54'0 0.0
2014-Sep-19 19:30N 22°28' E 113°54'0 0.0
2014-Sep-19 18:30N 22°28' E 113°54'0 0.0
2014-Sep-19 17:30N 22°28' E 113°54'0 0.0
2014-Sep-19 16:30N 22°28' E 113°54'0 0.0
2014-Sep-19 15:30N 22°28' E 113°54'0 0.0
2014-Sep-19 14:24N 22°28' E 113°54'0 0.0
2014-Sep-19 13:30N 22°28' E 113°54'0 0.0
2014-Sep-19 12:30N 22°28' E 113°54'0 0.0
2014-Sep-19 11:33N 22°28' E 113°54'0 0.0
2014-Sep-19 10:33N 22°28' E 113°54'0 0.0
2014-Sep-19 09:24N 22°28' E 113°54'4 4.3
2014-Sep-19 08:34N 22°24' E 113°54'11 9.8
2014-Sep-19 07:26N 22°20' E 114°05'178 7.0
2014-Sep-18 06:00N 19°24' E 113°36'49 8.2 090 / 61008.010.8 2.025.022.0
2014-Sep-18 00:00N 18°36' E 113°24'7412.3 090 / 61008.010.8 2.025.022.0
2014-Sep-17 18:00N 17°24' E 113°06'   200 / 171007.010.8 2.529.028.0

Dump ship's entire track history